| time (UTC) | temp F | wind direction | speed MPH | gust MPH | rain 1hr in | rain 24hr in | rain mn in | humidity % | barometer mb |
| 20260506093052 | 61 | 0 | 0.0 | 2.0 | 0.00 | 0.08 | 0.00 | 82 | 1008.7 |
| 20260506091542 | 61 | 0 | 0.0 | 0.0 | 0.00 | 0.08 | 0.00 | 81 | 1008.7 |
| 20260506090043 | 61 | 0 | 0.0 | 1.0 | 0.00 | 0.08 | 0.00 | 80 | 1008.7 |
| 20260506084544 | 62 | 0 | 1.0 | 2.0 | 0.00 | 0.08 | 0.00 | 80 | 1008.9 |
| 20260506083047 | 62 | 76 | 0.0 | 1.0 | 0.00 | 0.08 | 0.00 | 79 | 1009.0 |
| 20260506081546 | 62 | 76 | 0.0 | 1.0 | 0.00 | 0.08 | 0.00 | 78 | 1009.0 |
| 20260506073050 | 64 | 76 | 1.0 | 2.0 | 0.00 | 0.08 | 0.00 | 74 | 1008.9 |
| 20260506071554 | 64 | 82 | 0.0 | 3.0 | 0.00 | 0.08 | 0.00 | 73 | 1009.1 |
| 20260506070109 | 64 | 0 | 0.0 | 2.0 | 0.00 | 0.08 | 0.00 | 72 | 1009.2 |
| 20260506061545 | 65 | 86 | 0.0 | 2.0 | 0.00 | 0.08 | 0.00 | 70 | 1009.1 |
| 20260506044554 | 67 | 66 | 1.0 | 3.0 | 0.00 | 0.08 | 0.00 | 65 | 1009.9 |
| 20260506043045 | 67 | 0 | 0.0 | 4.0 | 0.00 | 0.08 | 0.00 | 64 | 1009.8 |
| 20260506041550 | 67 | 82 | 1.0 | 5.0 | 0.00 | 0.08 | 0.00 | 64 | 1009.8 |
| 20260506040048 | 67 | 42 | 0.0 | 3.0 | 0.00 | 0.08 | 0.00 | 63 | 1009.7 |
| 20260506034549 | 68 | 59 | 1.0 | 4.0 | 0.00 | 0.08 | 0.08 | 62 | 1009.7 |
| 20260506033051 | 69 | 65 | 1.0 | 7.0 | 0.00 | 0.08 | 0.08 | 60 | 1009.5 |
| 20260506031558 | 69 | 104 | 1.0 | 5.0 | 0.00 | 0.08 | 0.08 | 59 | 1009.5 |
| 20260506030105 | 70 | 88 | 1.0 | 6.0 | 0.00 | 0.08 | 0.08 | 56 | 1009.4 |
| 20260506024614 | 70 | 88 | 1.0 | 4.0 | 0.00 | 0.08 | 0.08 | 54 | 1009.4 |
| 20260506023046 | 71 | 0 | 1.0 | 7.0 | 0.00 | 0.08 | 0.08 | 51 | 1009.5 |
| 20260506021543 | 72 | 53 | 1.0 | 6.0 | 0.00 | 0.08 | 0.08 | 50 | 1009.4 |
| 20260506020044 | 72 | 61 | 1.0 | 5.0 | 0.00 | 0.08 | 0.08 | 49 | 1009.2 |
| 20260506014558 | 73 | 9 | 2.0 | 5.0 | 0.00 | 0.08 | 0.08 | 47 | 1009.3 |
| 20260506013049 | 73 | 72 | 2.0 | 4.0 | 0.00 | 0.08 | 0.08 | 46 | 1008.8 |
| 20260506011554 | 73 | 53 | 2.0 | 4.0 | 0.00 | 0.08 | 0.08 | 45 | 1008.6 |
| 20260506010054 | 74 | 67 | 1.0 | 10.0 | 0.00 | 0.08 | 0.08 | 43 | 1008.5 |
| 20260506004623 | 74 | 30 | 2.0 | 8.0 | 0.00 | 0.08 | 0.08 | 42 | 1008.3 |
| 20260506003048 | 74 | 66 | 1.0 | 9.0 | 0.00 | 0.08 | 0.08 | 41 | 1008.3 |
| 20260506001546 | 74 | 81 | 0.0 | 3.0 | 0.00 | 0.08 | 0.08 | 41 | 1007.9 |
| 20260506000051 | 75 | 82 | 2.0 | 6.0 | 0.00 | 0.08 | 0.08 | 39 | 1007.9 |
| 20260505234610 | 75 | 116 | 0.0 | 2.0 | 0.00 | 0.08 | 0.08 | 39 | 1007.7 |
| 20260505233041 | 76 | 91 | 2.0 | 5.0 | 0.00 | 0.08 | 0.08 | 38 | 1007.6 |
| 20260505231541 | 76 | 69 | 1.0 | 5.0 | 0.00 | 0.08 | 0.08 | 37 | 1007.2 |
| 20260505230052 | 76 | 99 | 1.0 | 5.0 | 0.00 | 0.08 | 0.08 | 36 | 1007.1 |
| 20260505224549 | 77 | 106 | 2.0 | 4.0 | 0.00 | 0.08 | 0.08 | 36 | 1007.1 |
| 20260505223059 | 78 | 126 | 1.0 | 4.0 | 0.00 | 0.08 | 0.08 | 35 | 1007.0 |
| 20260505221559 | 78 | 102 | 1.0 | 8.0 | 0.00 | 0.08 | 0.08 | 34 | 1006.9 |
| 20260505220115 | 78 | 105 | 2.0 | 6.0 | 0.00 | 0.08 | 0.08 | 35 | 1006.9 |
| 20260505214559 | 79 | 111 | 2.0 | 10.0 | 0.00 | 0.08 | 0.08 | 36 | 1006.8 |
| 20260505213046 | 79 | 90 | 1.0 | 4.0 | 0.00 | 0.08 | 0.08 | 37 | 1006.6 |
| 20260505211543 | 79 | 37 | 3.0 | 9.0 | 0.00 | 0.08 | 0.08 | 36 | 1006.6 |
| 20260505210043 | 79 | 112 | 3.0 | 15.0 | 0.00 | 0.08 | 0.08 | 35 | 1006.5 |
| 20260505204550 | 80 | 41 | 2.0 | 12.0 | 0.00 | 0.08 | 0.08 | 35 | 1006.5 |
| 20260505203052 | 80 | 59 | 4.0 | 15.0 | 0.00 | 0.08 | 0.08 | 36 | 1006.6 |
| 20260505201607 | 80 | 101 | 1.0 | 9.0 | 0.00 | 0.08 | 0.08 | 35 | 1006.7 |
| 20260505200100 | 81 | 119 | 1.0 | 8.0 | 0.00 | 0.08 | 0.08 | 37 | 1006.7 |
| 20260505194602 | 81 | 87 | 2.0 | 10.0 | 0.00 | 0.08 | 0.08 | 35 | 1006.7 |
| 20260505193049 | 81 | 116 | 2.0 | 13.0 | 0.00 | 0.08 | 0.08 | 35 | 1006.8 |
| 20260505191554 | 82 | 78 | 3.0 | 9.0 | 0.00 | 0.08 | 0.08 | 37 | 1007.0 |
| 20260505190054 | 82 | 77 | 2.0 | 11.0 | 0.00 | 0.08 | 0.08 | 39 | 1007.2 |
| 20260505184542 | 82 | 57 | 1.0 | 7.0 | 0.00 | 0.08 | 0.08 | 39 | 1007.4 |
| 20260505183055 | 82 | 43 | 2.0 | 10.0 | 0.00 | 0.08 | 0.08 | 38 | 1007.7 |
| 20260505181550 | 82 | 69 | 2.0 | 9.0 | 0.00 | 0.08 | 0.08 | 38 | 1007.8 |
| 20260505180050 | 83 | 48 | 3.0 | 5.0 | 0.00 | 0.08 | 0.08 | 39 | 1008.0 |
| 20260505174552 | 82 | 73 | 2.0 | 6.0 | 0.00 | 0.08 | 0.08 | 41 | 1008.0 |
| 20260505173053 | 81 | 105 | 4.0 | 11.0 | 0.00 | 0.08 | 0.08 | 41 | 1008.3 |
| 20260505171551 | 82 | 33 | 2.0 | 5.0 | 0.00 | 0.08 | 0.08 | 43 | 1008.3 |
| 20260505170053 | 82 | 336 | 3.0 | 5.0 | 0.00 | 0.08 | 0.08 | 45 | 1008.5 |
| 20260505164600 | 82 | 46 | 1.0 | 7.0 | 0.00 | 0.08 | 0.08 | 49 | 1008.8 |
| 20260505163049 | 80 | 124 | 2.0 | 5.0 | 0.00 | 0.08 | 0.08 | 46 | 1009.0 |
| 20260505161558 | 80 | 51 | 2.0 | 6.0 | 0.00 | 0.08 | 0.08 | 46 | 1009.3 |
| 20260505153054 | 77 | 59 | 1.0 | 6.0 | 0.00 | 0.08 | 0.08 | 50 | 1009.8 |
| 20260505151550 | 76 | 13 | 2.0 | 5.0 | 0.00 | 0.08 | 0.08 | 54 | 1009.8 |
| 20260505124558 | 59 | 0 | 0.0 | 1.0 | 0.00 | 0.07 | 0.07 | 89 | 1009.9 |
| 20260505123050 | 56 | 0 | 0.0 | 1.0 | 0.05 | 0.07 | 0.07 | 90 | 1010.1 |
| 20260505121550 | 55 | 0 | 0.0 | 1.0 | 0.07 | 0.07 | 0.07 | 90 | 1010.2 |
| 20260505120053 | 54 | 0 | 0.0 | 0.0 | 0.07 | 0.07 | 0.07 | 89 | 1010.1 |
| 20260505114550 | 54 | 0 | 0.0 | 3.0 | 0.07 | 0.07 | 0.07 | 88 | 1009.8 |
| 20260505113045 | 55 | 0 | 0.0 | 0.0 | 0.01 | 0.01 | 0.01 | 84 | 1010.5 |
| 20260505111548 | 55 | 0 | 0.0 | 0.0 | 0.00 | 0.00 | 0.00 | 82 | 1010.4 |
| 20260505101545 | 52 | 0 | 0.0 | 0.0 | 0.00 | 0.00 | 0.00 | 82 | 1009.9 |
| 20260505100048 | 52 | 0 | 0.0 | 0.0 | 0.00 | 0.00 | 0.00 | 81 | 1009.7 |
| 20260505094549 | 52 | 0 | 0.0 | 0.0 | 0.00 | 0.00 | 0.00 | 81 | 1009.7 |